This is the latest recevied weather packets stored in our database for station/object K9VSK-9. If no packets are shown the sender has not sent any weather packets the latest 1 day(s).
| Time | Temp. | Humidity | Pressure | Rain* | Wind** | Luminosity | Snow |
|---|---|---|---|---|---|---|---|
| 1778025572 | 11.67° C | 61% | 1010 hPa | 0 mm | 0 m/s | - | - |
| 1778025272 | 11.67° C | 62% | 1010 hPa | 0 mm | 0 m/s | - | - |
| 1778024971 | 11.67° C | 60% | 1010.3 hPa | 0 mm | 0 m/s | - | - |
| 1778024371 | 11.67° C | 59% | 1010.2 hPa | 0 mm | 0 m/s | - | - |
| 1778024072 | 11.67° C | 58% | 1010.2 hPa | 0 mm | 0.45 m/s, 360° | - | - |
| 1778023470 | 11.67° C | 60% | 1010.3 hPa | 0 mm | 0 m/s | - | - |
| 1778022869 | 11.67° C | 57% | 1010.2 hPa | 0 mm | 0.89 m/s, 53° | - | - |
| 1778022569 | 11.67° C | 55% | 1010.2 hPa | 0 mm | 1.34 m/s, 103° | - | - |
| 1778022269 | 11.67° C | 56% | 1010.1 hPa | 0 mm | 1.34 m/s, 105° | - | - |
| 1778020767 | 12.22° C | 55% | 1010.3 hPa | 0 mm | 0.89 m/s, 213° | - | - |
| 1778020467 | 12.22° C | 55% | 1010.2 hPa | 0 mm | 1.34 m/s, 68° | - | - |
| 1778020167 | 12.22° C | 57% | 1010.2 hPa | 0 mm | 1.79 m/s, 11° | - | - |
| 1778019867 | 12.22° C | 56% | 1010.3 hPa | 0 mm | 0.45 m/s, 276° | - | - |
| 1778019567 | 12.22° C | 56% | 1010.4 hPa | 0 mm | 1.79 m/s, 344° | - | - |
| 1778019266 | 12.22° C | 53% | 1010.3 hPa | 0 mm | 1.79 m/s, 5° | - | - |
| 1778018966 | 12.22° C | 56% | 1010.2 hPa | 0 mm | 0.45 m/s, 276° | - | - |
| 1778018666 | 11.67° C | 54% | 1010.3 hPa | 0 mm | 0.89 m/s, 360° | - | - |
| 1778018365 | 11.67° C | 54% | 1010.4 hPa | 0 mm | 1.34 m/s, 355° | - | - |
| 1778018065 | 11.67° C | 54% | 1010.5 hPa | 0 mm | 0.45 m/s, 79° | - | - |
| 1778017765 | 11.67° C | 54% | 1010.5 hPa | 0 mm | 1.34 m/s, 360° | - | - |
| 1778017464 | 11.67° C | 54% | 1010.4 hPa | 0 mm | 1.34 m/s, 321° | - | - |
| 1778017164 | 11.67° C | 57% | 1010.4 hPa | 0 mm | 1.34 m/s, 331° | - | - |
| 1778016864 | 11.67° C | 53% | 1010.5 hPa | 0 mm | 2.68 m/s, 346° | - | - |
| 1778016564 | 11.67° C | 53% | 1010.6 hPa | 0 mm | 2.24 m/s, 337° | - | - |
| 1778016263 | 12.22° C | 53% | 1010.4 hPa | 0 mm | 0.89 m/s, 57° | - | - |
* Rain latest hour (hover to see other rain measurements)
** Current wind speed in m/s (hover to see current wind gust speed)